Year,Month,Day,Hour,Minute,Value (Times are PST for temperature in C)
2015,07,18,00,00,20.80
2015,07,18,00,01,20.80
2015,07,18,00,02,20.80
2015,07,18,00,03,20.80
2015,07,18,00,04,20.80
2015,07,18,00,05,20.70
2015,07,18,00,06,20.70
2015,07,18,00,07,20.80
2015,07,18,00,08,20.80
2015,07,18,00,09,20.80
2015,07,18,00,10,20.80
2015,07,18,00,11,20.70
2015,07,18,00,12,20.70
2015,07,18,00,13,20.70
2015,07,18,00,14,20.70
2015,07,18,00,15,20.70
2015,07,18,00,16,20.70
2015,07,18,00,17,20.70
2015,07,18,00,18,20.70
2015,07,18,00,19,20.70
2015,07,18,00,20,20.70
2015,07,18,00,21,20.70
2015,07,18,00,22,20.60
2015,07,18,00,23,20.60
2015,07,18,00,24,20.60
2015,07,18,00,25,20.60
2015,07,18,00,26,20.60
2015,07,18,00,27,20.60
2015,07,18,00,28,20.60
2015,07,18,00,29,20.50
2015,07,18,00,30,20.50
2015,07,18,00,31,20.50
2015,07,18,00,32,20.50
2015,07,18,00,33,20.50
2015,07,18,00,34,20.50
2015,07,18,00,35,20.50
2015,07,18,00,36,20.50
2015,07,18,00,37,20.50
2015,07,18,00,38,20.40
2015,07,18,00,39,20.40
2015,07,18,00,40,20.40
2015,07,18,00,41,20.40
2015,07,18,00,42,20.40
2015,07,18,00,43,20.40
2015,07,18,00,44,20.40
2015,07,18,00,45,20.40
2015,07,18,00,46,20.40
2015,07,18,00,47,20.50
2015,07,18,00,48,20.50
2015,07,18,00,49,20.50
2015,07,18,00,50,20.50
2015,07,18,00,51,20.50
2015,07,18,00,52,20.40
2015,07,18,00,53,20.40
2015,07,18,00,54,20.50
2015,07,18,00,55,20.40
2015,07,18,00,56,20.40
2015,07,18,00,57,20.40
2015,07,18,00,58,20.40
2015,07,18,00,59,20.40
2015,07,18,01,00,20.30
2015,07,18,01,01,20.30
2015,07,18,01,02,20.30
2015,07,18,01,03,20.30
2015,07,18,01,04,20.30
2015,07,18,01,05,20.30
2015,07,18,01,06,20.30
2015,07,18,01,07,20.40
2015,07,18,01,08,20.40
2015,07,18,01,09,20.40
2015,07,18,01,10,20.40
2015,07,18,01,11,20.40
2015,07,18,01,12,20.40
2015,07,18,01,13,20.40
2015,07,18,01,14,20.40
2015,07,18,01,15,20.40
2015,07,18,01,16,20.40
2015,07,18,01,17,20.40
2015,07,18,01,18,20.40
2015,07,18,01,19,20.30
2015,07,18,01,20,20.30
2015,07,18,01,21,20.30
2015,07,18,01,22,20.20
2015,07,18,01,23,20.20
2015,07,18,01,24,20.20
2015,07,18,01,25,20.10
2015,07,18,01,26,20.00
2015,07,18,01,27,20.00
2015,07,18,01,28,20.00
2015,07,18,01,29,19.90
2015,07,18,01,30,19.90
2015,07,18,01,31,19.90
2015,07,18,01,32,19.80
2015,07,18,01,33,19.80
2015,07,18,01,34,19.80
2015,07,18,01,35,19.80
2015,07,18,01,36,19.80
2015,07,18,01,37,19.80
2015,07,18,01,38,19.80
2015,07,18,01,39,19.80
2015,07,18,01,40,19.80
2015,07,18,01,41,19.80
2015,07,18,01,42,19.80
2015,07,18,01,43,19.80
2015,07,18,01,44,19.80
2015,07,18,01,45,19.90
2015,07,18,01,46,19.90
2015,07,18,01,47,19.90
2015,07,18,01,48,19.90
2015,07,18,01,49,19.90
2015,07,18,01,50,19.90
2015,07,18,01,51,19.90
2015,07,18,01,52,19.90
2015,07,18,01,53,19.90
2015,07,18,01,54,19.90
2015,07,18,01,55,19.90
2015,07,18,01,56,19.90
2015,07,18,01,57,19.90
2015,07,18,01,58,19.90
2015,07,18,01,59,19.80
2015,07,18,02,00,19.80
2015,07,18,02,01,19.80
2015,07,18,02,02,19.70
2015,07,18,02,03,19.70
2015,07,18,02,04,19.70
2015,07,18,02,05,19.70
2015,07,18,02,06,19.70
2015,07,18,02,07,19.70
2015,07,18,02,08,19.60
2015,07,18,02,09,19.60
2015,07,18,02,10,19.50
2015,07,18,02,11,19.50
2015,07,18,02,12,19.40
2015,07,18,02,13,19.40
2015,07,18,02,14,19.30
2015,07,18,02,15,19.30
2015,07,18,02,16,19.30
2015,07,18,02,17,19.20
2015,07,18,02,18,19.20
2015,07,18,02,19,19.20
2015,07,18,02,20,19.20
2015,07,18,02,21,19.20
2015,07,18,02,22,19.20
2015,07,18,02,23,19.20
2015,07,18,02,24,19.20
2015,07,18,02,25,19.20
2015,07,18,02,26,19.20
2015,07,18,02,27,19.20
2015,07,18,02,28,19.20
2015,07,18,02,29,19.20
2015,07,18,02,30,19.20
2015,07,18,02,31,19.20
2015,07,18,02,32,19.20
2015,07,18,02,33,19.20
2015,07,18,02,34,19.20
2015,07,18,02,35,19.20
2015,07,18,02,36,19.10
2015,07,18,02,37,19.10
2015,07,18,02,38,19.10
2015,07,18,02,39,19.10
2015,07,18,02,40,19.10
2015,07,18,02,41,19.10
2015,07,18,02,42,19.10
2015,07,18,02,43,19.10
2015,07,18,02,44,19.10
2015,07,18,02,45,19.10
2015,07,18,02,46,19.00
2015,07,18,02,47,19.00
2015,07,18,02,48,18.90
2015,07,18,02,49,18.90
2015,07,18,02,50,18.90
2015,07,18,02,51,18.80
2015,07,18,02,52,18.80
2015,07,18,02,53,18.70
2015,07,18,02,54,18.60
2015,07,18,02,55,18.60
2015,07,18,02,56,18.50
2015,07,18,02,57,18.40
2015,07,18,02,58,18.30
2015,07,18,02,59,18.30
2015,07,18,03,00,18.30
2015,07,18,03,01,18.30
2015,07,18,03,02,18.20
2015,07,18,03,03,18.20
2015,07,18,03,04,18.20
2015,07,18,03,05,18.10
2015,07,18,03,06,18.10
2015,07,18,03,07,18.00
2015,07,18,03,08,17.90
2015,07,18,03,09,17.90
2015,07,18,03,10,17.90
2015,07,18,03,11,18.00
2015,07,18,03,12,18.00
2015,07,18,03,13,18.10
2015,07,18,03,14,18.10
2015,07,18,03,15,18.10
2015,07,18,03,16,18.20
2015,07,18,03,17,18.20
2015,07,18,03,18,18.20
2015,07,18,03,19,18.20
2015,07,18,03,20,18.20
2015,07,18,03,21,18.20
2015,07,18,03,22,18.10
2015,07,18,03,23,18.10
2015,07,18,03,24,18.10
2015,07,18,03,25,18.10
2015,07,18,03,26,18.10
2015,07,18,03,27,18.10
2015,07,18,03,28,18.00
2015,07,18,03,29,18.00
2015,07,18,03,30,18.00
2015,07,18,03,31,18.00
2015,07,18,03,32,17.90
2015,07,18,03,33,17.90
2015,07,18,03,34,17.80
2015,07,18,03,35,17.80
2015,07,18,03,36,17.80
2015,07,18,03,37,17.80
2015,07,18,03,38,17.80
2015,07,18,03,39,17.80
2015,07,18,03,40,17.80
2015,07,18,03,41,17.70
2015,07,18,03,42,17.70
2015,07,18,03,43,17.70
2015,07,18,03,44,17.70
2015,07,18,03,45,17.70
2015,07,18,03,46,17.70
2015,07,18,03,47,17.70
2015,07,18,03,48,17.70
2015,07,18,03,49,17.70
2015,07,18,03,50,17.70
2015,07,18,03,51,17.60
2015,07,18,03,52,17.60
2015,07,18,03,53,17.60
2015,07,18,03,54,17.60
2015,07,18,03,55,17.60
2015,07,18,03,56,17.50
2015,07,18,03,57,17.50
2015,07,18,03,58,17.50
2015,07,18,03,59,17.40
2015,07,18,04,00,17.40
2015,07,18,04,01,17.40
2015,07,18,04,02,17.40
2015,07,18,04,03,17.40
2015,07,18,04,04,17.40
2015,07,18,04,05,17.40
2015,07,18,04,06,17.40
2015,07,18,04,07,17.50
2015,07,18,04,08,17.50
2015,07,18,04,09,17.50
2015,07,18,04,10,17.60
2015,07,18,04,11,17.60
2015,07,18,04,12,17.60
2015,07,18,04,13,17.60
2015,07,18,04,14,17.60
2015,07,18,04,15,17.60
2015,07,18,04,16,17.60
2015,07,18,04,17,17.50
2015,07,18,04,18,17.50
2015,07,18,04,19,17.40
2015,07,18,04,20,17.40
2015,07,18,04,21,17.30
2015,07,18,04,22,17.20
2015,07,18,04,23,17.20
2015,07,18,04,24,17.20
2015,07,18,04,25,17.10
2015,07,18,04,26,17.10
2015,07,18,04,27,17.10
2015,07,18,04,28,17.10
2015,07,18,04,29,17.10
2015,07,18,04,30,17.10
2015,07,18,04,31,17.10
2015,07,18,04,32,17.10
2015,07,18,04,33,17.10
2015,07,18,04,34,17.10
2015,07,18,04,35,17.10
2015,07,18,04,36,17.10
2015,07,18,04,37,17.00
2015,07,18,04,38,17.00
2015,07,18,04,39,16.90
2015,07,18,04,40,16.90
2015,07,18,04,41,16.80
2015,07,18,04,42,16.80
2015,07,18,04,43,16.80
2015,07,18,04,44,16.80
2015,07,18,04,45,16.80
2015,07,18,04,46,16.70
2015,07,18,04,47,16.70
2015,07,18,04,48,16.70
2015,07,18,04,49,16.70
2015,07,18,04,50,16.70
2015,07,18,04,51,16.70
2015,07,18,04,52,16.80
2015,07,18,04,53,16.90
2015,07,18,04,54,16.90
2015,07,18,04,55,17.00
2015,07,18,04,56,17.10
2015,07,18,04,57,17.10
2015,07,18,04,58,17.10
2015,07,18,04,59,17.10
2015,07,18,05,00,17.10
2015,07,18,05,01,17.10
2015,07,18,05,02,17.20
2015,07,18,05,03,17.20
2015,07,18,05,04,17.20
2015,07,18,05,05,17.20
2015,07,18,05,06,17.10
2015,07,18,05,07,17.10
2015,07,18,05,08,17.10
2015,07,18,05,09,17.10
2015,07,18,05,10,17.10
2015,07,18,05,11,17.00
2015,07,18,05,12,17.00
2015,07,18,05,13,16.90
2015,07,18,05,14,16.90
2015,07,18,05,15,16.80
2015,07,18,05,16,16.80
2015,07,18,05,17,16.70
2015,07,18,05,18,16.70
2015,07,18,05,19,16.60
2015,07,18,05,20,16.60
2015,07,18,05,21,16.50
2015,07,18,05,22,16.50
2015,07,18,05,23,16.40
2015,07,18,05,24,16.40
2015,07,18,05,25,16.30
2015,07,18,05,26,16.30
2015,07,18,05,27,16.30
2015,07,18,05,28,16.30
2015,07,18,05,29,16.20
2015,07,18,05,30,16.20
2015,07,18,05,31,16.20
2015,07,18,05,32,16.20
2015,07,18,05,33,16.10
2015,07,18,05,34,16.10
2015,07,18,05,35,16.10
2015,07,18,05,36,16.00
2015,07,18,05,37,16.00
2015,07,18,05,38,16.00
2015,07,18,05,39,15.90
2015,07,18,05,40,16.00
2015,07,18,05,41,16.00
2015,07,18,05,42,16.00
2015,07,18,05,43,16.00
2015,07,18,05,44,16.00
2015,07,18,05,45,16.00
2015,07,18,05,46,16.00
2015,07,18,05,47,16.10
2015,07,18,05,48,16.10
2015,07,18,05,49,16.20
2015,07,18,05,50,16.20
2015,07,18,05,51,16.30
2015,07,18,05,52,16.30
2015,07,18,05,53,16.30
2015,07,18,05,54,16.40
2015,07,18,05,55,16.40
2015,07,18,05,56,16.50
2015,07,18,05,57,16.50
2015,07,18,05,58,16.50
2015,07,18,05,59,16.60
2015,07,18,06,00,16.60
2015,07,18,06,01,16.70
2015,07,18,06,02,16.70
2015,07,18,06,03,16.80
2015,07,18,06,04,16.80
2015,07,18,06,05,16.80
2015,07,18,06,06,16.90
2015,07,18,06,07,16.90
2015,07,18,06,08,16.90
2015,07,18,06,09,16.90
2015,07,18,06,10,17.00
2015,07,18,06,11,17.00
2015,07,18,06,12,17.10
2015,07,18,06,13,17.10
2015,07,18,06,14,17.10
2015,07,18,06,15,17.20
2015,07,18,06,16,17.20
2015,07,18,06,17,17.20
2015,07,18,06,18,17.20
2015,07,18,06,19,17.20
2015,07,18,06,20,17.30
2015,07,18,06,21,17.30
2015,07,18,06,22,17.30
2015,07,18,06,23,17.40
2015,07,18,06,24,17.40
2015,07,18,06,25,17.40
2015,07,18,06,26,17.50
2015,07,18,06,27,17.50
2015,07,18,06,28,17.60
2015,07,18,06,29,17.60
2015,07,18,06,30,17.60
2015,07,18,06,31,17.70
2015,07,18,06,32,17.70
2015,07,18,06,33,17.70
2015,07,18,06,34,17.70
2015,07,18,06,35,17.80
2015,07,18,06,36,17.80
2015,07,18,06,37,17.80
2015,07,18,06,38,17.80
2015,07,18,06,39,17.90
2015,07,18,06,40,17.90
2015,07,18,06,41,18.00
2015,07,18,06,42,18.00
2015,07,18,06,43,18.10
2015,07,18,06,44,18.10
2015,07,18,06,45,18.20
2015,07,18,06,46,18.20
2015,07,18,06,47,18.20
2015,07,18,06,48,18.30
2015,07,18,06,49,18.30
2015,07,18,06,50,18.30
2015,07,18,06,51,18.30
2015,07,18,06,52,18.40
2015,07,18,06,53,18.40
2015,07,18,06,54,18.40
2015,07,18,06,55,18.40
2015,07,18,06,56,18.50
2015,07,18,06,57,18.50
2015,07,18,06,58,18.60
2015,07,18,06,59,18.60
2015,07,18,07,00,18.60
2015,07,18,07,01,18.70
2015,07,18,07,02,18.70
2015,07,18,07,03,18.70
2015,07,18,07,04,18.80
2015,07,18,07,05,18.80
2015,07,18,07,06,18.90
2015,07,18,07,07,18.90
2015,07,18,07,08,19.00
2015,07,18,07,09,19.00
2015,07,18,07,10,19.10
2015,07,18,07,11,19.10
2015,07,18,07,12,19.20
2015,07,18,07,13,19.20
2015,07,18,07,14,19.20
2015,07,18,07,15,19.30
2015,07,18,07,16,19.30
2015,07,18,07,17,19.30
2015,07,18,07,18,19.40
2015,07,18,07,19,19.40
2015,07,18,07,20,19.40
2015,07,18,07,21,19.50
2015,07,18,07,22,19.50
2015,07,18,07,23,19.60
2015,07,18,07,24,19.60
2015,07,18,07,25,19.60
2015,07,18,07,26,19.70
2015,07,18,07,27,19.70
2015,07,18,07,28,19.70
2015,07,18,07,29,19.70
2015,07,18,07,30,19.80
2015,07,18,07,31,19.80
2015,07,18,07,32,19.80
2015,07,18,07,33,19.80
2015,07,18,07,34,19.90
2015,07,18,07,35,19.90
2015,07,18,07,36,19.90
2015,07,18,07,37,19.90
2015,07,18,07,38,19.90
2015,07,18,07,39,19.90
2015,07,18,07,40,19.90
2015,07,18,07,41,19.90
2015,07,18,07,42,19.90
2015,07,18,07,43,19.90
2015,07,18,07,44,19.90
2015,07,18,07,45,19.90
2015,07,18,07,46,19.90
2015,07,18,07,47,19.90
2015,07,18,07,48,19.90
2015,07,18,07,49,19.80
2015,07,18,07,50,19.80
2015,07,18,07,51,19.80
2015,07,18,07,52,19.80
2015,07,18,07,53,19.80
2015,07,18,07,54,19.80
2015,07,18,07,55,19.80
2015,07,18,07,56,19.80
2015,07,18,07,57,19.80
2015,07,18,07,58,19.70
2015,07,18,07,59,19.70
2015,07,18,08,00,19.70
2015,07,18,08,01,19.80
2015,07,18,08,02,19.80
2015,07,18,08,03,19.80
2015,07,18,08,04,19.80
2015,07,18,08,05,19.80
2015,07,18,08,06,19.80
2015,07,18,08,07,19.80
2015,07,18,08,08,19.80
2015,07,18,08,09,19.90
2015,07,18,08,10,19.90
2015,07,18,08,11,19.90
2015,07,18,08,12,19.90
2015,07,18,08,13,19.90
2015,07,18,08,14,19.90
2015,07,18,08,15,20.00
2015,07,18,08,16,20.00
2015,07,18,08,17,20.00
2015,07,18,08,18,20.00
2015,07,18,08,19,20.10
2015,07,18,08,20,20.10
2015,07,18,08,21,20.10
2015,07,18,08,22,20.10
2015,07,18,08,23,20.20
2015,07,18,08,24,20.20
2015,07,18,08,25,20.20
2015,07,18,08,26,20.30
2015,07,18,08,27,20.30
2015,07,18,08,28,20.30
2015,07,18,08,29,20.30
2015,07,18,08,30,20.30
2015,07,18,08,31,20.30
2015,07,18,08,32,20.40
2015,07,18,08,33,20.50
2015,07,18,08,34,20.50
2015,07,18,08,35,20.50
2015,07,18,08,36,20.60
2015,07,18,08,37,20.60
2015,07,18,08,38,20.60
2015,07,18,08,39,20.60
2015,07,18,08,40,20.70
2015,07,18,08,41,20.70
2015,07,18,08,42,20.70
2015,07,18,08,43,20.70
2015,07,18,08,44,20.70
2015,07,18,08,45,20.80
2015,07,18,08,46,20.80
2015,07,18,08,47,20.90
2015,07,18,08,48,20.90
2015,07,18,08,49,20.90
2015,07,18,08,50,20.90
2015,07,18,08,51,20.90
2015,07,18,08,52,20.90
2015,07,18,08,53,20.90
2015,07,18,08,54,20.90
2015,07,18,08,55,20.90
2015,07,18,08,56,21.00
2015,07,18,08,57,21.00
2015,07,18,08,58,21.10
2015,07,18,08,59,21.10
2015,07,18,09,00,21.20
2015,07,18,09,01,21.20
2015,07,18,09,02,21.20
2015,07,18,09,03,21.20
2015,07,18,09,04,21.20
2015,07,18,09,05,21.20
2015,07,18,09,06,21.20
2015,07,18,09,07,21.30
2015,07,18,09,08,21.30
2015,07,18,09,09,21.40
2015,07,18,09,10,21.40
2015,07,18,09,11,21.40
2015,07,18,09,12,21.40
2015,07,18,09,13,21.40
2015,07,18,09,14,21.40
2015,07,18,09,15,21.40
2015,07,18,09,16,21.40
2015,07,18,09,17,21.40
2015,07,18,09,18,21.30
2015,07,18,09,19,21.30
2015,07,18,09,20,21.30
2015,07,18,09,21,21.20
2015,07,18,09,22,21.20
2015,07,18,09,23,21.10
2015,07,18,09,24,21.10
2015,07,18,09,25,21.10
2015,07,18,09,26,21.10
2015,07,18,09,27,21.10
2015,07,18,09,28,21.00
2015,07,18,09,29,20.90
2015,07,18,09,30,20.90
2015,07,18,09,31,20.90
2015,07,18,09,32,21.00
2015,07,18,09,33,21.00
2015,07,18,09,34,21.10
2015,07,18,09,35,21.10
2015,07,18,09,36,21.10
2015,07,18,09,37,21.10
2015,07,18,09,38,21.20
2015,07,18,09,39,21.20
2015,07,18,09,40,21.20
2015,07,18,09,41,21.20
2015,07,18,09,42,21.20
2015,07,18,09,43,21.30
2015,07,18,09,44,21.30
2015,07,18,09,45,21.30
2015,07,18,09,46,21.40
2015,07,18,09,47,21.40
2015,07,18,09,48,21.40
2015,07,18,09,49,21.50
2015,07,18,09,50,21.50
2015,07,18,09,51,21.50
2015,07,18,09,52,21.50
2015,07,18,09,53,21.60
2015,07,18,09,54,21.60
2015,07,18,09,55,21.60
2015,07,18,09,56,21.60
2015,07,18,09,57,21.70
2015,07,18,09,58,21.80
2015,07,18,09,59,21.80
2015,07,18,10,00,21.90
2015,07,18,10,01,21.80
2015,07,18,10,02,21.80
2015,07,18,10,03,21.80
2015,07,18,10,04,21.90
2015,07,18,10,05,21.90
2015,07,18,10,06,22.00
2015,07,18,10,07,22.00
2015,07,18,10,08,22.10
2015,07,18,10,09,22.10
2015,07,18,10,10,22.10
2015,07,18,10,11,22.00
2015,07,18,10,12,22.00
2015,07,18,10,13,22.00
2015,07,18,10,14,22.00
2015,07,18,10,15,22.10
2015,07,18,10,16,22.10
2015,07,18,10,17,22.10
2015,07,18,10,18,22.10
2015,07,18,10,19,22.10
2015,07,18,10,20,22.20
2015,07,18,10,21,22.20
2015,07,18,10,22,22.20
2015,07,18,10,23,22.20
2015,07,18,10,24,22.20
2015,07,18,10,25,22.10
2015,07,18,10,26,22.10
2015,07,18,10,27,22.20
2015,07,18,10,28,22.20
2015,07,18,10,29,22.30
2015,07,18,10,30,22.30
2015,07,18,10,31,22.30
2015,07,18,10,32,22.20
2015,07,18,10,33,22.30
2015,07,18,10,34,22.30
2015,07,18,10,35,22.30
2015,07,18,10,36,22.30
2015,07,18,10,37,22.20
2015,07,18,10,38,22.20
2015,07,18,10,39,22.20
2015,07,18,10,40,22.20
2015,07,18,10,41,22.30
2015,07,18,10,42,22.30
2015,07,18,10,43,22.30
2015,07,18,10,44,22.30
2015,07,18,10,45,22.30
2015,07,18,10,46,22.30
2015,07,18,10,47,22.30
2015,07,18,10,48,22.30
2015,07,18,10,49,22.30
2015,07,18,10,50,22.30
2015,07,18,10,51,22.30
2015,07,18,10,52,22.20
2015,07,18,10,53,22.20
2015,07,18,10,54,22.20
2015,07,18,10,55,22.20
2015,07,18,10,56,22.20
2015,07,18,10,57,22.20
2015,07,18,10,58,22.20
2015,07,18,10,59,22.20
2015,07,18,11,00,22.20
2015,07,18,11,01,22.30
2015,07,18,11,02,22.30
2015,07,18,11,03,22.30
2015,07,18,11,04,22.40
2015,07,18,11,05,22.40
2015,07,18,11,06,22.40
2015,07,18,11,07,22.40
2015,07,18,11,08,22.40
2015,07,18,11,09,22.50
2015,07,18,11,10,22.50
2015,07,18,11,11,22.50
2015,07,18,11,12,22.60
2015,07,18,11,13,22.60
2015,07,18,11,14,22.60
2015,07,18,11,15,22.70
2015,07,18,11,16,22.80
2015,07,18,11,17,22.80
2015,07,18,11,18,22.90
2015,07,18,11,19,22.90
2015,07,18,11,20,23.00
2015,07,18,11,21,23.00
2015,07,18,11,22,23.10
2015,07,18,11,23,23.20
2015,07,18,11,24,23.20
2015,07,18,11,25,23.20
2015,07,18,11,26,23.20
2015,07,18,11,27,23.20
2015,07,18,11,28,23.20
2015,07,18,11,29,23.20
2015,07,18,11,30,23.20
2015,07,18,11,31,23.20
2015,07,18,11,32,23.20
2015,07,18,11,33,23.20
2015,07,18,11,34,23.30
2015,07,18,11,35,23.30
2015,07,18,11,36,23.40
2015,07,18,11,37,23.50
2015,07,18,11,38,23.50
2015,07,18,11,39,23.60
2015,07,18,11,40,23.60
2015,07,18,11,41,23.70
2015,07,18,11,42,23.70
2015,07,18,11,43,23.80
2015,07,18,11,44,23.80
2015,07,18,11,45,23.80
2015,07,18,11,46,23.90
2015,07,18,11,47,23.90
2015,07,18,11,48,23.90
2015,07,18,11,49,23.90
2015,07,18,11,50,23.90
2015,07,18,11,51,23.90
2015,07,18,11,52,23.90
2015,07,18,11,53,24.00
2015,07,18,11,54,24.00
2015,07,18,11,55,24.10
2015,07,18,11,56,24.20
2015,07,18,11,57,24.20
2015,07,18,11,58,24.30
2015,07,18,11,59,24.30
2015,07,18,12,00,24.30
2015,07,18,12,01,24.30
2015,07,18,12,02,24.20
2015,07,18,12,03,24.20
2015,07,18,12,04,24.20
2015,07,18,12,05,24.30
2015,07,18,12,06,24.30
2015,07,18,12,07,24.40
2015,07,18,12,08,24.40
2015,07,18,12,09,24.40
2015,07,18,12,10,24.50
2015,07,18,12,11,24.60
2015,07,18,12,12,24.80
2015,07,18,12,13,25.00
2015,07,18,12,14,25.10
2015,07,18,12,15,25.20
2015,07,18,12,16,25.20
2015,07,18,12,17,25.10
2015,07,18,12,18,25.10
2015,07,18,12,19,25.10
2015,07,18,12,20,25.20
2015,07,18,12,21,25.20
2015,07,18,12,22,25.20
2015,07,18,12,23,25.20
2015,07,18,12,24,25.20
2015,07,18,12,25,25.20
2015,07,18,12,26,25.20
2015,07,18,12,27,25.30
2015,07,18,12,28,25.40
2015,07,18,12,29,25.60
2015,07,18,12,30,25.70
2015,07,18,12,31,25.80
2015,07,18,12,32,25.90
2015,07,18,12,33,26.10
2015,07,18,12,34,26.20
2015,07,18,12,35,26.30
2015,07,18,12,36,26.30
2015,07,18,12,37,26.30
2015,07,18,12,38,26.40
2015,07,18,12,39,26.30
2015,07,18,12,40,26.30
2015,07,18,12,41,26.30
2015,07,18,12,42,26.30
2015,07,18,12,43,26.30
2015,07,18,12,44,26.30
2015,07,18,12,45,26.30
2015,07,18,12,46,26.30
2015,07,18,12,47,26.30
2015,07,18,12,48,26.30
2015,07,18,12,49,26.20
2015,07,18,12,50,26.30
2015,07,18,12,51,26.30
2015,07,18,12,52,26.30
2015,07,18,12,53,26.40
2015,07,18,12,54,26.50
2015,07,18,12,55,26.60
2015,07,18,12,56,26.70
2015,07,18,12,57,26.70
2015,07,18,12,58,26.60
2015,07,18,12,59,26.60
2015,07,18,13,00,26.60
2015,07,18,13,01,26.70
2015,07,18,13,02,26.70
2015,07,18,13,03,26.60
2015,07,18,13,04,26.60
2015,07,18,13,05,26.60
2015,07,18,13,06,26.50
2015,07,18,13,07,26.40
2015,07,18,13,08,26.40
2015,07,18,13,09,26.40
2015,07,18,13,10,26.30
2015,07,18,13,11,26.30
2015,07,18,13,12,26.30
2015,07,18,13,13,26.30
2015,07,18,13,14,26.30
2015,07,18,13,15,26.30
2015,07,18,13,16,26.30
2015,07,18,13,17,26.30
2015,07,18,13,18,26.30
2015,07,18,13,19,26.30
2015,07,18,13,20,26.30
2015,07,18,13,21,26.40
2015,07,18,13,22,26.40
2015,07,18,13,23,26.40
2015,07,18,13,24,26.40
2015,07,18,13,25,26.50
2015,07,18,13,26,26.50
2015,07,18,13,27,26.50
2015,07,18,13,28,26.50
2015,07,18,13,29,26.60
2015,07,18,13,30,26.60
2015,07,18,13,31,26.60
2015,07,18,13,32,26.60
2015,07,18,13,33,26.70
2015,07,18,13,34,26.80
2015,07,18,13,35,26.80
2015,07,18,13,36,26.80
2015,07,18,13,37,26.90
2015,07,18,13,38,26.90
2015,07,18,13,39,26.90
2015,07,18,13,40,26.90
2015,07,18,13,41,26.90
2015,07,18,13,42,26.80
2015,07,18,13,43,26.80
2015,07,18,13,44,26.80
2015,07,18,13,45,26.80
2015,07,18,13,46,26.80
2015,07,18,13,47,26.90
2015,07,18,13,48,26.90
2015,07,18,13,49,26.80
2015,07,18,13,50,26.70
2015,07,18,13,51,26.60
2015,07,18,13,52,26.60
2015,07,18,13,53,26.60
2015,07,18,13,54,26.60
2015,07,18,13,55,26.70
2015,07,18,13,56,26.80
2015,07,18,13,57,26.90
2015,07,18,13,58,26.90
2015,07,18,13,59,27.00
2015,07,18,14,00,27.10
2015,07,18,14,01,27.10
2015,07,18,14,02,27.10
2015,07,18,14,03,27.00
2015,07,18,14,04,27.00
2015,07,18,14,05,27.10
2015,07,18,14,06,27.10
2015,07,18,14,07,27.10
2015,07,18,14,08,27.10
2015,07,18,14,09,27.20
2015,07,18,14,10,27.20
2015,07,18,14,11,27.20
2015,07,18,14,12,27.20
2015,07,18,14,13,27.20
2015,07,18,14,14,27.20
2015,07,18,14,15,27.10
2015,07,18,14,16,27.10
2015,07,18,14,17,27.10
2015,07,18,14,18,27.10
2015,07,18,14,19,27.10
2015,07,18,14,20,27.20
2015,07,18,14,21,27.20
2015,07,18,14,22,27.20
2015,07,18,14,23,27.20
2015,07,18,14,24,27.20
2015,07,18,14,25,27.30
2015,07,18,14,26,27.30
2015,07,18,14,27,27.40
2015,07,18,14,28,27.40
2015,07,18,14,29,27.40
2015,07,18,14,30,27.30
2015,07,18,14,31,27.40
2015,07,18,14,32,27.40
2015,07,18,14,33,27.30
2015,07,18,14,34,27.20
2015,07,18,14,35,27.20
2015,07,18,14,36,27.30
2015,07,18,14,37,27.40
2015,07,18,14,38,27.60
2015,07,18,14,39,27.60
2015,07,18,14,40,27.70
2015,07,18,14,41,27.70
2015,07,18,14,42,27.70
2015,07,18,14,43,27.70
2015,07,18,14,44,27.70
2015,07,18,14,45,27.80
2015,07,18,14,46,27.80
2015,07,18,14,47,27.90
2015,07,18,14,48,28.00
2015,07,18,14,49,28.00
2015,07,18,14,50,28.10
2015,07,18,14,51,28.10
2015,07,18,14,52,28.20
2015,07,18,14,53,28.30
2015,07,18,14,54,28.20
2015,07,18,14,55,28.20
2015,07,18,14,56,28.10
2015,07,18,14,57,28.10
2015,07,18,14,58,28.00
2015,07,18,14,59,28.00
2015,07,18,15,00,28.10
2015,07,18,15,01,28.20
2015,07,18,15,02,28.20
2015,07,18,15,03,28.30
2015,07,18,15,04,28.40
2015,07,18,15,05,28.40
2015,07,18,15,06,28.30
2015,07,18,15,07,28.20
2015,07,18,15,08,28.20
2015,07,18,15,09,28.10
2015,07,18,15,10,28.10
2015,07,18,15,11,28.10
2015,07,18,15,12,28.00
2015,07,18,15,13,28.00
2015,07,18,15,14,28.00
2015,07,18,15,15,27.90
2015,07,18,15,16,27.90
2015,07,18,15,17,28.00
2015,07,18,15,18,28.00
2015,07,18,15,19,28.10
2015,07,18,15,20,28.10
2015,07,18,15,21,28.10
2015,07,18,15,22,28.20
2015,07,18,15,23,28.20
2015,07,18,15,24,28.30
2015,07,18,15,25,28.40
2015,07,18,15,26,28.50
2015,07,18,15,27,28.50
2015,07,18,15,28,28.60
2015,07,18,15,29,28.70
2015,07,18,15,30,28.70
2015,07,18,15,31,28.80
2015,07,18,15,32,28.80
2015,07,18,15,33,28.90
2015,07,18,15,34,28.90
2015,07,18,15,35,29.00
2015,07,18,15,36,29.00
2015,07,18,15,37,29.00
2015,07,18,15,38,29.10
2015,07,18,15,39,29.00
2015,07,18,15,40,29.00
2015,07,18,15,41,29.00
2015,07,18,15,42,28.90
2015,07,18,15,43,29.00
2015,07,18,15,44,29.10
2015,07,18,15,45,29.10
2015,07,18,15,46,29.10
2015,07,18,15,47,29.00
2015,07,18,15,48,29.00
2015,07,18,15,49,28.90
2015,07,18,15,50,28.90
2015,07,18,15,51,28.90
2015,07,18,15,52,28.90
2015,07,18,15,53,29.00
2015,07,18,15,54,28.90
2015,07,18,15,55,29.00
2015,07,18,15,56,29.00
2015,07,18,15,57,29.00
2015,07,18,15,58,29.10
2015,07,18,15,59,29.00
2015,07,18,16,00,29.00
2015,07,18,16,01,28.90
2015,07,18,16,02,29.00
2015,07,18,16,03,29.00
2015,07,18,16,04,28.90
2015,07,18,16,05,28.90
2015,07,18,16,06,28.90
2015,07,18,16,07,29.00
2015,07,18,16,08,29.20
2015,07,18,16,09,29.30
2015,07,18,16,10,29.40
2015,07,18,16,11,29.60
2015,07,18,16,12,29.70
2015,07,18,16,13,29.70
2015,07,18,16,14,29.70
2015,07,18,16,15,29.80
2015,07,18,16,16,29.80
2015,07,18,16,17,29.80
2015,07,18,16,18,29.80
2015,07,18,16,19,29.70
2015,07,18,16,20,29.70
2015,07,18,16,21,29.60
2015,07,18,16,22,29.60
2015,07,18,16,23,29.60
2015,07,18,16,24,29.60
2015,07,18,16,25,29.60
2015,07,18,16,26,29.70
2015,07,18,16,27,29.70
2015,07,18,16,28,29.70
2015,07,18,16,29,29.70
2015,07,18,16,30,29.70
2015,07,18,16,31,29.70
2015,07,18,16,32,29.80
2015,07,18,16,33,29.90
2015,07,18,16,34,30.10
2015,07,18,16,35,30.20
2015,07,18,16,36,30.20
2015,07,18,16,37,30.20
2015,07,18,16,38,30.10
2015,07,18,16,39,30.10
2015,07,18,16,40,30.10
2015,07,18,16,41,30.00
2015,07,18,16,42,29.90
2015,07,18,16,43,29.80
2015,07,18,16,44,29.90
2015,07,18,16,45,29.90
2015,07,18,16,46,29.90
2015,07,18,16,47,29.90
2015,07,18,16,48,30.00
2015,07,18,16,49,30.10
2015,07,18,16,50,30.10
2015,07,18,16,51,30.20
2015,07,18,16,52,30.30
2015,07,18,16,53,30.40
2015,07,18,16,54,30.50
2015,07,18,16,55,30.60
2015,07,18,16,56,30.70
2015,07,18,16,57,30.80
2015,07,18,16,58,30.80
2015,07,18,16,59,30.80
2015,07,18,17,00,30.80
2015,07,18,17,01,30.80
2015,07,18,17,02,30.80
2015,07,18,17,03,30.80
2015,07,18,17,04,30.80
2015,07,18,17,05,30.80
2015,07,18,17,06,30.80
2015,07,18,17,07,30.80
2015,07,18,17,08,30.90
2015,07,18,17,09,30.90
2015,07,18,17,10,30.80
2015,07,18,17,11,30.80
2015,07,18,17,12,30.80
2015,07,18,17,13,30.80
2015,07,18,17,14,30.70
2015,07,18,17,15,30.70
2015,07,18,17,16,30.80
2015,07,18,17,17,30.80
2015,07,18,17,18,30.90
2015,07,18,17,19,30.80